Miscellaneous Local Product
Issued by NWS Hastings, NE

Home | Current Version | Previous Version | Graphics & Text | Print | Product List | Glossary On
Versions: 1 2 3 4 5 6 7 8 9 10 11 12 13 14 15 16 17 18 19 20 21 22 23 24 25 26 27 28 29 30 31 32 33 34 35 36 37 38 39 40 41 42 43 44 45 46 47 48 49 50
734
AXUS43 KGID 231802
MISGRI

GID CWA HOURLY WEATHER ROUNDUP
NATIONAL WEATHER SERVICE HASTINGS NE
1200 PM CST THU FEB 23 2017

NOTE: "FAIR" INDICATES FEW OR NO CLOUDS BELOW 12,000 FEET WITH NO
SIGNIFICANT WEATHER AND/OR OBSTRUCTIONS TO VISIBILITY.

...SOUTH CENTRAL NEBRASKA...

CITY           SKY/WX    TMP DP  RH WIND       PRES   REMARKS
GRAND ISLAND   CLOUDY    34  32  92 NE25G32   29.66F WCI  21
HASTINGS       CLOUDY    34  32  92 NE23G31   29.65F FOG     WCI  22
KEARNEY        CLOUDY    34  28  80 NE21G28   29.66S WCI  22
ORD            MIX PCPN  31  27  85 NE16G23   29.71F WCI  20
YORK           CLOUDY    36  34  93 NE18G28   29.67S WCI  25
AURORA         CLOUDY    34  33  96 NE23G29   29.67F WCI  22
LEXINGTON      FOG       31  30  95 NE18G24   29.64F VSB 1   WCI  20
HOLDREGE       CLOUDY    33  31  93 NE26      29.62F WCI  20
HEBRON         CLOUDY    42  34  73 NE18G25   29.62F

...NEBRASKA PANHANDLE...

CITY           SKY/WX    TMP DP  RH WIND       PRES   REMARKS
CHADRON        FOG       25  21  85 NE22      29.80R VSB 3/4 WCI  10
ALLIANCE       SNOW      22  19  89 NE17      29.69S VSB 1/2 WCI   8
SCOTTSBLUFF    SNOW      25  21  85 NE20G28   29.69F VSB 1/2 WCI  11
SIDNEY         FRZ RAIN  25  23  92 NE23G29   29.61F FOG     WCI  10

...WESTERN AND NORTH CENTRAL NEBRASKA...

CITY           SKY/WX    TMP DP  RH WIND       PRES   REMARKS
VALENTINE      SNOW      26  22  84 NE16G22   29.81F VSB 1/2 WCI  14
AINSWORTH      LGT SNOW  27  26  96 NE17      29.78S WCI  14
ONEILL         LGT SNOW  31  29  94 NE20G25   29.79F VSB 1   WCI  19
BROKEN BOW     CLOUDY    30  28  92 NE22G30   29.67F WCI  17
IMPERIAL       SNOW      29  28  96 NE21      29.60F VSB 1/2 WCI  16
NORTH PLATTE   CLOUDY    30  24  78 NE18G29   29.65F WCI  18
MCCOOK         CLOUDY    32  32 100 NE20      29.60F FOG     WCI  20

...EASTERN NEBRASKA...

CITY           SKY/WX    TMP DP  RH WIND       PRES   REMARKS
NORFOLK        FLURRIES  32  29  88 N18G25    29.74F WCI  20
SO SIOUX CITY  CLOUDY    37  30  75 NE20      29.78F WCI  27
TEKAMAH        CLOUDY    38  32  79 NE17      29.73F WCI  28
COLUMBUS       CLOUDY    36  30  80 NE17G23   29.72F WCI  25
ALBION         CLOUDY    33  31  92 NE20G26   29.72F FOG     WCI  21
OMAHA EPPLEY   CLOUDY    41  33  73 NE15      29.69F
OFFUTT AFB     CLOUDY    42  35  77 NE14G20   29.66F
MILLARD        CLOUDY    42  36  79 NE7       29.68F
LINCOLN        CLOUDY    41  33  73 NE17      29.67F
NEBRASKA CITY  CLOUDY    41  35  77 E18G24    29.64F
BEATRICE       CLOUDY    41  36  82 NE14      29.63F
FALLS CITY     PTSUNNY   47  38  71 E22G29    29.61F

...NORTHERN KANSAS...

CITY           SKY/WX    TMP DP  RH WIND       PRES   REMARKS
GOODLAND       CLOUDY    33  33 100 NE16      29.52F WCI  23
HILL CITY      CLOUDY    43  35  73 E17G26    29.56F
NORTON         CLOUDY    36  28  75 NE16G22   29.57F WCI  26
PHILLIPSBURG   CLOUDY    39  34  81 NE16G24   29.59F WCI  30
SMITH CENTER   CLOUDY    39  34  81 NE16G24   29.58F WCI  30
HAYS           SUNNY     53  37  54 NE18G24   29.51F
RUSSELL        SUNNY     54  38  54 E13G24    29.50F
CONCORDIA      CLOUDY    48  37  65 E16G26    29.56F
SALINA         CLOUDY    61  42  49 E16       29.49F
TOPEKA         PTSUNNY   55  42  61 E23       29.53F



USA.gov is the U.S. government's official web portal to all federal, state and local government web resources and services.